608  
ASUS41 KBGM 211710  
RWRBGM  
 
REGIONAL WEATHER ROUNDUP  
NATIONAL WEATHER SERVICE BINGHAMTON NY  
100 PM EDT MON AUG 21 2017  
 
NOTE: "FAIR" INDICATES FEW OR NO CLOUDS BELOW 12,000 FEET WITH NO  
SIGNIFICANT WEATHER AND/OR S TO VISIBILITY
.  
 
* = STATION(S) THAT DOES NOT REPORT PRECIPITATION, SUCH AS RAIN,  
SNOW, ETC, ALSO NO THUNDER OR FOG.
 
 
NYZ009-015>018-022>025-036-037-044>046-055>057-062-211800   
..CENTRAL NEW YORK
 
 
 
CITY SKY/WX TMP DP RH WIND PRES REMARKS
 
BINGHAMTON PTSUNNY 77 65 66 VRB6 30.18F  
CORTLAND FAIR 79 63 57 SW8 30.16F  
DANSVILLE SUNNY 83 67 58 SE9 30.10F HX 85  
ELMIRA MOSUNNY 80 77 90 E5 30.14S HX 87  
SENECA FALLS SUNNY 82 64 54 S9 30.11F  
ITHACA PTSUNNY 79 67 66 SE5 30.16S  
HAMILTON SUNNY 81 55 41 SW5 30.16S  
HORNELL SUNNY 81 66 61 CALM 30.16F  
MONTICELLO PTSUNNY 79 64 60 VRB5 30.21F  
ONEONTA SUNNY 77 N/A N/A W8 30.20R  
PENN YAN SUNNY 81 63 54 S9 30.13F  
ROME SUNNY 83 63 50 S9 30.12F  
SIDNEY MOSUNNY 81 63 54 SW6 30.16F  
SYRACUSE MOSUNNY 86 61 42 W10 30.10F HX 86  

 
 
PAZ038>040-043-044-047-048-072-211800   
..NORTHEAST PENNSYLVANIA
 
 
 
CITY SKY/WX TMP DP RH WIND PRES REMARKS
 
HAZLETON N/A 84 70 61 SW5 30.24F HX 88  
SCRANTON MOSUNNY 82 68 62 VRB7 30.17F HX 85  

 

 
KEY  
WCI = WIND CHILL INDEX  
VSB = VISIBILITY  
HX = HEAT INDEX  

 
 
 
CLICK HERE TO GO TO PREVIOUS BULLETINS.

The Nexlab NY Page
The Nexlab PA Page Main Text Page